TimeEDT,TemperatureF,Dew PointF,Humidity,Sea Level PressureIn,VisibilityMPH,Wind Direction,Wind SpeedMPH,Gust SpeedMPH,PrecipitationIn,Events,Conditions,WindDirDegrees,DateUTC
12:56 AM,36.0,34.0,93,30.36,4.0,Calm,Calm,-,N/A,,Clear,0,2013-10-29 04:56:00
1:56 AM,35.1,34.0,96,30.36,4.0,Calm,Calm,-,N/A,,Clear,0,2013-10-29 05:56:00
2:56 AM,33.1,32.0,96,30.37,4.0,Calm,Calm,-,N/A,,Clear,0,2013-10-29 06:56:00
3:00 AM,32.0,30.2,93,30.35,1.8,Calm,Calm,-,N/A,,Clear,0,2013-10-29 07:00:00
3:11 AM,33.8,33.8,100,30.35,3.0,Calm,Calm,-,N/A,,Clear,0,2013-10-29 07:11:00
3:56 AM,34.0,33.1,96,30.36,4.0,Calm,Calm,-,N/A,,Clear,0,2013-10-29 07:56:00
4:56 AM,32.0,30.0,92,30.37,4.0,Calm,Calm,-,N/A,,Clear,0,2013-10-29 08:56:00
5:51 AM,30.2,28.4,93,30.36,1.5,Calm,Calm,-,N/A,,Clear,0,2013-10-29 09:51:00
5:56 AM,28.9,28.9,100,30.39,0.5,Calm,Calm,-,N/A,Fog,Light Freezing Fog,0,2013-10-29 09:56:00
6:06 AM,30.2,28.4,93,30.37,1.5,Calm,Calm,-,N/A,,Clear,0,2013-10-29 10:06:00
6:08 AM,30.2,28.4,93,30.37,3.0,Calm,Calm,-,N/A,,Clear,0,2013-10-29 10:08:00
6:25 AM,30.2,28.4,93,30.37,1.5,Calm,Calm,-,N/A,,Clear,0,2013-10-29 10:25:00
6:28 AM,30.2,28.4,93,30.37,0.8,Calm,Calm,-,N/A,,Clear,0,2013-10-29 10:28:00
6:36 AM,28.4,26.6,93,30.37,1.2,Calm,Calm,-,N/A,,Clear,0,2013-10-29 10:36:00
6:38 AM,30.2,26.6,86,30.37,3.0,Calm,Calm,-,N/A,,Clear,0,2013-10-29 10:38:00
6:56 AM,30.0,28.0,92,30.40,5.0,North,3.5,-,N/A,,Clear,360,2013-10-29 10:56:00
7:56 AM,30.9,30.0,96,30.41,3.0,Calm,Calm,-,N/A,,Clear,0,2013-10-29 11:56:00
8:03 AM,30.2,28.4,93,30.38,2.0,Calm,Calm,-,N/A,,Clear,0,2013-10-29 12:03:00
8:28 AM,30.2,30.2,100,30.39,3.0,Calm,Calm,-,N/A,,Clear,0,2013-10-29 12:28:00
8:56 AM,35.1,34.0,96,30.42,4.0,Calm,Calm,-,N/A,,Clear,0,2013-10-29 12:56:00
9:13 AM,35.6,35.6,100,30.39,2.5,Calm,Calm,-,0.01,,Clear,0,2013-10-29 13:13:00
9:21 AM,37.4,35.6,93,30.39,4.0,Calm,Calm,-,0.01,,Clear,0,2013-10-29 13:21:00
9:56 AM,41.0,37.0,86,30.43,7.0,East,4.6,-,0.01,,Clear,80,2013-10-29 13:56:00
10:56 AM,46.0,39.0,76,30.42,10.0,East,6.9,-,N/A,,Clear,80,2013-10-29 14:56:00
11:56 AM,51.1,39.0,63,30.43,10.0,ENE,4.6,-,N/A,,Clear,60,2013-10-29 15:56:00
12:56 PM,54.0,37.9,55,30.39,10.0,Variable,6.9,-,N/A,,Clear,0,2013-10-29 16:56:00
1:56 PM,55.0,37.0,51,30.36,10.0,Calm,Calm,-,N/A,,Clear,0,2013-10-29 17:56:00
2:56 PM,55.9,37.0,49,30.32,10.0,Calm,Calm,-,N/A,,Clear,0,2013-10-29 18:56:00
3:56 PM,55.0,37.0,51,30.33,10.0,Variable,3.5,-,N/A,,Clear,0,2013-10-29 19:56:00
4:56 PM,55.0,37.9,53,30.33,10.0,Calm,Calm,-,N/A,,Clear,0,2013-10-29 20:56:00
5:56 PM,48.9,39.0,69,30.32,10.0,East,4.6,-,N/A,,Clear,100,2013-10-29 21:56:00
6:56 PM,45.0,37.0,74,30.32,10.0,Calm,Calm,-,N/A,,Clear,0,2013-10-29 22:56:00
7:56 PM,39.9,36.0,86,30.32,8.0,Calm,Calm,-,N/A,,Clear,0,2013-10-29 23:56:00
8:56 PM,42.1,37.0,82,30.32,9.0,Calm,Calm,-,N/A,,Clear,0,2013-10-30 00:56:00
9:56 PM,39.9,37.0,89,30.31,8.0,Calm,Calm,-,N/A,,Clear,0,2013-10-30 01:56:00
10:56 PM,39.9,37.9,93,30.29,8.0,Calm,Calm,-,N/A,,Clear,0,2013-10-30 02:56:00
11:56 PM,41.0,37.0,86,30.27,7.0,Calm,Calm,-,N/A,,Clear,0,2013-10-30 03:56:00